2023/02/03 00:00:00,52.4,-0.4
2023/02/03 00:10:00,52.3,-0.4
2023/02/03 00:20:00,52.3,-0.4
2023/02/03 00:30:00,52.1, 0.0
2023/02/03 00:40:00,52.1,-0.3
2023/02/03 00:50:00,52.1,-0.2
2023/02/03 01:00:00,52.0,-0.2
2023/02/03 01:10:00,52.0,-0.6
2023/02/03 01:20:00,51.9,-0.8
2023/02/03 01:30:00,51.8,-0.9
2023/02/03 01:40:00,51.8,-0.9
2023/02/03 01:50:00,51.8,-0.9
2023/02/03 02:00:00,51.8,-0.8
2023/02/03 02:10:00,51.8,-0.4
2023/02/03 02:20:00,51.7,-0.7
2023/02/03 02:30:00,51.7, 0.2
2023/02/03 02:40:00,51.7,-1.1
2023/02/03 02:50:00,51.6,-1.1
2023/02/03 03:00:00,51.5,-1.2
2023/02/03 03:10:00,51.5,-1.0
2023/02/03 03:20:00,51.5,-0.6
2023/02/03 03:30:00,51.4,-0.7
2023/02/03 03:40:00,51.4,-0.7
2023/02/03 03:50:00,51.3,-0.8
2023/02/03 04:00:00,51.3,-1.0
2023/02/03 04:10:00,51.3,-1.0
2023/02/03 04:20:00,51.2,-0.6
2023/02/03 04:30:00,51.1,-1.1
2023/02/03 04:40:00,51.1,-1.3
2023/02/03 04:50:00,51.1,-1.3
2023/02/03 05:00:00,51.1,-1.3
2023/02/03 05:10:00,51.1,-1.4
2023/02/03 05:20:00,51.1,-1.2
2023/02/03 05:30:00,51.0,-1.0
2023/02/03 05:40:00,51.0,-1.3
2023/02/03 05:50:00,50.9,-1.3
2023/02/03 06:00:00,50.8,-1.8
2023/02/03 06:10:00,50.8,-1.7
2023/02/03 06:20:00,50.8,-1.7
2023/02/03 06:30:00,50.8,-1.7
2023/02/03 06:40:00,50.7,-1.4
2023/02/03 06:50:00,50.6,-1.4
2023/02/03 07:00:00,50.6,-1.5
2023/02/03 07:10:00,50.6,-1.3
2023/02/03 07:20:00,50.5,-1.3
2023/02/03 07:30:00,50.4,-1.3
2023/02/03 07:40:00,50.4,-1.1
2023/02/03 07:50:00,50.3,-0.9
2023/02/03 08:00:00,50.2,-0.8
2023/02/03 08:10:00,50.0, 0.0
2023/02/03 08:20:00,49.9, 0.5
2023/02/03 08:30:00,49.8, 0.9
2023/02/03 08:40:00,49.6, 1.0
2023/02/03 08:50:00,49.6, 1.5
2023/02/03 09:00:00,49.4, 2.4
2023/02/03 09:10:00,49.1, 2.6
2023/02/03 09:20:00,48.6, 3.1
2023/02/03 09:30:00,48.6, 3.2
2023/02/03 09:40:00,48.6, 3.7
2023/02/03 09:50:00,48.7, 3.9
2023/02/03 10:00:00,48.8, 4.6
2023/02/03 10:10:00,48.6, 3.9
2023/02/03 10:20:00,48.4, 3.8
2023/02/03 10:30:00,48.3, 4.9
2023/02/03 10:40:00,47.5, 4.6
2023/02/03 10:50:00,47.4, 5.0
2023/02/03 11:00:00,47.0, 4.9
2023/02/03 11:10:00,46.7, 5.1
2023/02/03 11:20:00,47.1, 5.7
2023/02/03 11:30:00,47.4, 5.5
2023/02/03 11:40:00,47.8, 5.0
2023/02/03 11:50:00,48.0, 5.8
2023/02/03 12:00:00,47.9, 5.3
2023/02/03 12:10:00,47.4, 6.5
2023/02/03 12:20:00,47.2, 6.0
2023/02/03 12:30:00,47.3, 6.3
2023/02/03 12:40:00,47.4, 5.4
2023/02/03 12:50:00,47.2, 5.9
2023/02/03 13:00:00,47.2, 6.0
2023/02/03 13:10:00,47.0, 6.0
2023/02/03 13:20:00,47.2, 6.2
2023/02/03 13:30:00,47.6, 6.4
2023/02/03 13:40:00,47.2, 7.5
2023/02/03 13:50:00,47.0, 6.0
2023/02/03 14:00:00,46.7, 5.9
2023/02/03 14:10:00,46.6, 6.2
2023/02/03 14:20:00,46.2, 7.4
2023/02/03 14:30:00,46.5, 6.0
2023/02/03 14:40:00,46.3, 7.3
2023/02/03 14:50:00,46.7, 7.5
2023/02/03 15:00:00,46.0, 6.9
2023/02/03 15:10:00,45.2, 7.2
2023/02/03 15:20:00,44.8, 9.6
2023/02/03 15:30:00,44.6, 9.4
2023/02/03 15:40:00,45.7, 9.6
2023/02/03 15:50:00,45.3, 9.1
2023/02/03 16:00:00,45.4, 8.4
2023/02/03 16:10:00,45.3, 6.8
2023/02/03 16:20:00,45.5, 6.3
2023/02/03 16:30:00,45.7, 6.3
2023/02/03 16:40:00,45.4, 9.1
2023/02/03 16:50:00,45.8, 6.3
2023/02/03 17:00:00,45.9, 5.2
2023/02/03 17:10:00,45.6, 3.5
2023/02/03 17:20:00,45.7, 2.4
2023/02/03 17:30:00,45.7, 1.7
2023/02/03 17:40:00,45.7, 1.0
2023/02/03 17:50:00,45.7, 0.7
2023/02/03 18:00:00,45.7, 0.4
2023/02/03 18:10:00,45.7, 0.4
2023/02/03 18:20:00,45.7, 0.3
2023/02/03 18:30:00,45.7, 0.0
2023/02/03 18:40:00,45.6, 0.2
2023/02/03 18:50:00,45.6, 0.0
2023/02/03 19:00:00,45.5,-0.3
2023/02/03 19:10:00,45.6,-0.1
2023/02/03 19:20:00,45.7,-0.1
2023/02/03 19:30:00,45.6,-0.4
2023/02/03 19:40:00,45.5,-0.4
2023/02/03 19:50:00,45.4,-0.8
2023/02/03 20:00:00,45.3,-0.8
2023/02/03 20:10:00,45.3,-0.7
2023/02/03 20:20:00,45.1,-0.7
2023/02/03 20:30:00,45.1,-0.7
2023/02/03 20:40:00,45.1,-0.8
2023/02/03 20:50:00,45.1,-0.7
2023/02/03 21:00:00,45.1,-0.7
2023/02/03 21:10:00,45.0,-0.6
2023/02/03 21:20:00,45.0,-0.5
2023/02/03 21:30:00,45.0,-0.6
2023/02/03 21:40:00,45.0,-0.4
2023/02/03 21:50:00,45.0,-1.2
2023/02/03 22:00:00,45.0,-1.2
2023/02/03 22:10:00,44.8,-1.1
2023/02/03 22:20:00,44.9,-1.2
2023/02/03 22:30:00,44.8,-1.3
2023/02/03 22:40:00,44.8,-1.4
2023/02/03 22:50:00,44.8,-1.4
2023/02/03 23:00:00,44.8,-1.8
2023/02/03 23:10:00,44.8,-1.4
2023/02/03 23:20:00,44.8,-1.4
2023/02/03 23:30:00,44.7,-1.3
2023/02/03 23:40:00,44.6,-1.5
2023/02/03 23:50:00,44.5,-1.7
